Regional Weather Roundup
Issued by NWS

Home | Current Version | Previous Version | Text Only | Print | Product List | Glossary Off
Versions: 1 2 3 4 5 6 7 8 9 10 11 12 13 14 15 16 17 18 19 20 21 22 23 24 25 26 27 28 29 30 31 32 33 34 35 36 37 38 39 40 41 42 43 44 45 46 47 48 49 50

000
ASUS43 KBIS 280102
RWRND

NORTH DAKOTA REGIONAL WEATHER ROUNDUP
NATIONAL WEATHER SERVICE BISMARCK ND
800 PM CDT TUE SEP 27 2016

NOTE: "FAIR" INDICATES FEW OR NO CLOUDS BELOW 12,000 FEET WITH NO
SIGNIFICANT WEATHER AND/OR OBSTRUCTIONS TO VISIBILITY.


NDZ001>003-009>011-017-280200-
NORTHWEST NORTH DAKOTA

CITY           SKY/WX    TMP DP  RH WIND       PRES   REMARKS
WILLISTON      CLEAR     68  51  54 SE7       29.92R
MINOT          CLEAR     59  42  53 E5        29.95R
MINOT AFB      CLEAR     61  42  50 E7        29.94S
$$

NDZ018>021-031>035-040>046-280200-
SOUTHWEST NORTH DAKOTA

CITY           SKY/WX    TMP DP  RH WIND       PRES   REMARKS
BISMARCK       CLEAR     63  43  48 NE6       29.96R
DICKINSON      CLEAR     66  46  48 E5        29.95R
GARRISON         N/A     60  44  55 E7        29.96R
HETTINGER ARPT CLEAR     66  48  52 N8        29.99R
$$

NDZ004>008-012>016-024-026-027-054-280200-
NORTHEAST NORTH DAKOTA

CITY           SKY/WX    TMP DP  RH WIND       PRES   REMARKS
GRAND FORKS    MOCLDY    55  45  68 NE9       29.96R
GRND FRKS AFB  PTCLDY    49  44  83 NE6       29.96R
DEVILS LAKE    CLEAR     53  38  56 N8        29.97R
$$

NDZ022-023-025-028>030-036>039-047>053-280200-
SOUTHEAST NORTH DAKOTA

CITY           SKY/WX    TMP DP  RH WIND       PRES   REMARKS
FARGO          CLEAR     54  43  66 N9        29.94R
JAMESTOWN      CLEAR     50  38  63 N7        29.95R
$$




USA.gov is the U.S. government's official web portal to all federal, state and local government web resources and services.